Location: Astronomy Club of Akron Observatory
(40.9700°N, 81.5606°W)
Time: 18:36:49
(UTC-04:00)

ISS - Pass Details

Date: 22 July 2018
Orbit: 402 x 408 km, 51.6° (Epoch: 19 July)

Event Time Altitude Azimuth Distance (km) Brightness Sun altitude
Rises 23:47:58 0° 288° (WNW) 2,321 0.7 -24.3°
Reaches altitude 10° 23:50:46 10° 314° (NW) 1,464 -0.1 -24.5°
Maximum altitude 23:52:41 14° 350° (N) 1,225 -0.5 -24.7°
Drops below altitude 10° 23:54:36 10° 26° (NNE) 1,467 -0.5 -24.8°
Sets 23:57:24 0° 52° (NE) 2,329 0.2 -25.0°
